owner,sensor,date,latitude,longitude,air_temperature,qcFlag 
DISL,ioos:station:DISL:MHPA:1,2015-07-01T00:00:00Z,30.6671,-87.9365,27.86,1111122 
DISL,ioos:station:DISL:MHPA:1,2015-07-01T00:30:00Z,30.6671,-87.9365,27.89,1111122 
DISL,ioos:station:DISL:MHPA:1,2015-07-01T01:00:00Z,30.6671,-87.9365,27.96,1111122 
DISL,ioos:station:DISL:MHPA:1,2015-07-01T01:30:00Z,30.6671,-87.9365,27.39,1111122 
DISL,ioos:station:DISL:MHPA:1,2015-07-01T02:00:00Z,30.6671,-87.9365,27.23,1111122 
DISL,ioos:station:DISL:MHPA:1,2015-07-01T02:30:00Z,30.6671,-87.9365,26.79,1111122 
DISL,ioos:station:DISL:MHPA:1,2015-07-01T03:00:00Z,30.6671,-87.9365,26.36,1111122 
DISL,ioos:station:DISL:MHPA:1,2015-07-01T03:30:00Z,30.6671,-87.9365,27.04,1111122 
DISL,ioos:station:DISL:MHPA:1,2015-07-01T04:00:00Z,30.6671,-87.9365,28.15,1111122 
DISL,ioos:station:DISL:MHPA:1,2015-07-01T04:30:00Z,30.6671,-87.9365,27.87,1111122 
DISL,ioos:station:DISL:MHPA:1,2015-07-01T05:00:00Z,30.6671,-87.9365,26.32,1111122 
DISL,ioos:station:DISL:MHPA:1,2015-07-01T05:30:00Z,30.6671,-87.9365,25.72,1111122 
DISL,ioos:station:DISL:MHPA:1,2015-07-01T06:00:00Z,30.6671,-87.9365,25.49,1111122 
DISL,ioos:station:DISL:MHPA:1,2015-07-01T06:30:00Z,30.6671,-87.9365,25.82,1111122 
DISL,ioos:station:DISL:MHPA:1,2015-07-01T07:00:00Z,30.6671,-87.9365,26.19,1111122 
DISL,ioos:station:DISL:MHPA:1,2015-07-01T07:30:00Z,30.6671,-87.9365,25.52,1111122 
DISL,ioos:station:DISL:MHPA:1,2015-07-01T08:00:00Z,30.6671,-87.9365,25.22,1111122 
DISL,ioos:station:DISL:MHPA:1,2015-07-01T08:30:00Z,30.6671,-87.9365,25.89,1111122 
DISL,ioos:station:DISL:MHPA:1,2015-07-01T09:00:00Z,30.6671,-87.9365,26.09,1111122 
DISL,ioos:station:DISL:MHPA:1,2015-07-01T09:30:00Z,30.6671,-87.9365,26.4,1111122 
DISL,ioos:station:DISL:MHPA:1,2015-07-01T10:00:00Z,30.6671,-87.9365,26.4,1111122 
DISL,ioos:station:DISL:MHPA:1,2015-07-01T10:30:00Z,30.6671,-87.9365,25.45,1111122 
DISL,ioos:station:DISL:MHPA:1,2015-07-01T11:00:00Z,30.6671,-87.9365,24.57,1111122 
DISL,ioos:station:DISL:MHPA:1,2015-07-01T11:30:00Z,30.6671,-87.9365,25.02,1111122 
DISL,ioos:station:DISL:MHPA:1,2015-07-01T12:00:00Z,30.6671,-87.9365,25.12,1111122 
DISL,ioos:station:DISL:MHPA:1,2015-07-01T12:30:00Z,30.6671,-87.9365,25.52,1111122 
DISL,ioos:station:DISL:MHPA:1,2015-07-01T13:00:00Z,30.6671,-87.9365,25.48,1111122 
DISL,ioos:station:DISL:MHPA:1,2015-07-01T13:30:00Z,30.6671,-87.9365,25.98,1111122 
DISL,ioos:station:DISL:MHPA:1,2015-07-01T14:00:00Z,30.6671,-87.9365,26.48,1111122 
DISL,ioos:station:DISL:MHPA:1,2015-07-01T14:30:00Z,30.6671,-87.9365,26.54,1111122 
DISL,ioos:station:DISL:MHPA:1,2015-07-01T15:00:00Z,30.6671,-87.9365,27.03,1111122 
DISL,ioos:station:DISL:MHPA:1,2015-07-01T15:30:00Z,30.6671,-87.9365,27.53,1111122 
DISL,ioos:station:DISL:MHPA:1,2015-07-01T16:00:00Z,30.6671,-87.9365,27.77,1111122 
DISL,ioos:station:DISL:MHPA:1,2015-07-01T16:30:00Z,30.6671,-87.9365,28.0,1111122 
DISL,ioos:station:DISL:MHPA:1,2015-07-01T17:00:00Z,30.6671,-87.9365,28.14,1111122 
DISL,ioos:station:DISL:MHPA:1,2015-07-01T17:30:00Z,30.6671,-87.9365,28.61,1111122 
DISL,ioos:station:DISL:MHPA:1,2015-07-01T18:00:00Z,30.6671,-87.9365,28.85,1111122 
DISL,ioos:station:DISL:MHPA:1,2015-07-01T18:30:00Z,30.6671,-87.9365,28.99,1111122 
DISL,ioos:station:DISL:MHPA:1,2015-07-01T19:00:00Z,30.6671,-87.9365,29.02,1111122 
DISL,ioos:station:DISL:MHPA:1,2015-07-01T19:30:00Z,30.6671,-87.9365,29.05,1111122 
DISL,ioos:station:DISL:MHPA:1,2015-07-01T20:00:00Z,30.6671,-87.9365,28.98,1111122 
DISL,ioos:station:DISL:MHPA:1,2015-07-01T20:30:00Z,30.6671,-87.9365,28.91,1111122 
DISL,ioos:station:DISL:MHPA:1,2015-07-01T21:00:00Z,30.6671,-87.9365,29.02,1111122 
DISL,ioos:station:DISL:MHPA:1,2015-07-01T21:30:00Z,30.6671,-87.9365,29.35,1111122 
DISL,ioos:station:DISL:MHPA:1,2015-07-01T22:00:00Z,30.6671,-87.9365,29.76,1111122 
DISL,ioos:station:DISL:MHPA:1,2015-07-01T22:30:00Z,30.6671,-87.9365,28.21,1111122 
DISL,ioos:station:DISL:MHPA:1,2015-07-01T23:00:00Z,30.6671,-87.9365,24.78,1111122 
DISL,ioos:station:DISL:MHPA:1,2015-07-01T23:30:00Z,30.6671,-87.9365,25.82,1111122 
DISL,ioos:station:DISL:MHPA:1,2015-07-02T00:00:00Z,30.6671,-87.9365,25.59,1111122 
DISL,ioos:station:DISL:MHPA:1,2015-07-02T00:30:00Z,30.6671,-87.9365,25.35,1111122 
DISL,ioos:station:DISL:MHPA:1,2015-07-02T01:00:00Z,30.6671,-87.9365,25.18,1111122 
DISL,ioos:station:DISL:MHPA:1,2015-07-02T01:30:00Z,30.6671,-87.9365,25.22,1111122 
DISL,ioos:station:DISL:MHPA:1,2015-07-02T02:00:00Z,30.6671,-87.9365,25.76,1111122 
DISL,ioos:station:DISL:MHPA:1,2015-07-02T02:30:00Z,30.6671,-87.9365,25.76,1111122 
DISL,ioos:station:DISL:MHPA:1,2015-07-02T03:00:00Z,30.6671,-87.9365,25.86,1111122 
DISL,ioos:station:DISL:MHPA:1,2015-07-02T03:30:00Z,30.6671,-87.9365,26.3,1111122 
DISL,ioos:station:DISL:MHPA:1,2015-07-02T04:00:00Z,30.6671,-87.9365,26.23,1111122 
DISL,ioos:station:DISL:MHPA:1,2015-07-02T04:30:00Z,30.6671,-87.9365,25.89,1111122 
DISL,ioos:station:DISL:MHPA:1,2015-07-02T05:00:00Z,30.6671,-87.9365,26.03,1111122 
DISL,ioos:station:DISL:MHPA:1,2015-07-02T05:30:00Z,30.6671,-87.9365,25.86,1111122 
DISL,ioos:station:DISL:MHPA:1,2015-07-02T06:00:00Z,30.6671,-87.9365,25.89,1111122 
DISL,ioos:station:DISL:MHPA:1,2015-07-02T06:30:00Z,30.6671,-87.9365,26.33,1111122 
DISL,ioos:station:DISL:MHPA:1,2015-07-02T07:00:00Z,30.6671,-87.9365,26.46,1111122 
DISL,ioos:station:DISL:MHPA:1,2015-07-02T07:30:00Z,30.6671,-87.9365,26.46,1111122 
DISL,ioos:station:DISL:MHPA:1,2015-07-02T08:00:00Z,30.6671,-87.9365,26.26,1111122 
DISL,ioos:station:DISL:MHPA:1,2015-07-02T08:30:00Z,30.6671,-87.9365,26.33,1111122 
DISL,ioos:station:DISL:MHPA:1,2015-07-02T09:00:00Z,30.6671,-87.9365,26.5,1111122 
DISL,ioos:station:DISL:MHPA:1,2015-07-02T09:30:00Z,30.6671,-87.9365,26.8,1111122 
DISL,ioos:station:DISL:MHPA:1,2015-07-02T10:00:00Z,30.6671,-87.9365,27.07,1111122 
DISL,ioos:station:DISL:MHPA:1,2015-07-02T10:30:00Z,30.6671,-87.9365,27.31,1111122 
DISL,ioos:station:DISL:MHPA:1,2015-07-02T11:00:00Z,30.6671,-87.9365,27.44,1111122 
DISL,ioos:station:DISL:MHPA:1,2015-07-02T11:30:00Z,30.6671,-87.9365,27.67,1111122 
DISL,ioos:station:DISL:MHPA:1,2015-07-02T12:00:00Z,30.6671,-87.9365,27.26,1111122 
DISL,ioos:station:DISL:MHPA:1,2015-07-02T12:30:00Z,30.6671,-87.9365,26.42,1111122 
DISL,ioos:station:DISL:MHPA:1,2015-07-02T13:00:00Z,30.6671,-87.9365,26.52,1111122 
DISL,ioos:station:DISL:MHPA:1,2015-07-02T13:30:00Z,30.6671,-87.9365,26.75,1111122 
DISL,ioos:station:DISL:MHPA:1,2015-07-02T14:00:00Z,30.6671,-87.9365,26.71,1111122 
DISL,ioos:station:DISL:MHPA:1,2015-07-02T14:30:00Z,30.6671,-87.9365,26.71,1111122 
DISL,ioos:station:DISL:MHPA:1,2015-07-02T15:00:00Z,30.6671,-87.9365,27.02,1111122 
DISL,ioos:station:DISL:MHPA:1,2015-07-02T15:30:00Z,30.6671,-87.9365,27.35,1111122 
DISL,ioos:station:DISL:MHPA:1,2015-07-02T16:00:00Z,30.6671,-87.9365,27.45,1111122 
DISL,ioos:station:DISL:MHPA:1,2015-07-02T16:30:00Z,30.6671,-87.9365,27.62,1111122 
DISL,ioos:station:DISL:MHPA:1,2015-07-02T17:00:00Z,30.6671,-87.9365,27.99,1111122 
DISL,ioos:station:DISL:MHPA:1,2015-07-02T17:30:00Z,30.6671,-87.9365,28.15,1111122 
DISL,ioos:station:DISL:MHPA:1,2015-07-02T18:00:00Z,30.6671,-87.9365,28.34,1111122 
DISL,ioos:station:DISL:MHPA:1,2015-07-02T18:30:00Z,30.6671,-87.9365,28.51,1111122 
DISL,ioos:station:DISL:MHPA:1,2015-07-02T19:00:00Z,30.6671,-87.9365,28.51,1111122 
DISL,ioos:station:DISL:MHPA:1,2015-07-02T19:30:00Z,30.6671,-87.9365,28.75,1111122 
DISL,ioos:station:DISL:MHPA:1,2015-07-02T20:00:00Z,30.6671,-87.9365,29.22,1111122 
DISL,ioos:station:DISL:MHPA:1,2015-07-02T20:30:00Z,30.6671,-87.9365,29.55,1111122 
DISL,ioos:station:DISL:MHPA:1,2015-07-02T21:00:00Z,30.6671,-87.9365,30.23,1111122 
DISL,ioos:station:DISL:MHPA:1,2015-07-02T21:30:00Z,30.6671,-87.9365,29.89,1111122 
DISL,ioos:station:DISL:MHPA:1,2015-07-02T22:00:00Z,30.6671,-87.9365,29.93,1111122 
DISL,ioos:station:DISL:MHPA:1,2015-07-02T22:30:00Z,30.6671,-87.9365,29.76,1111122 
DISL,ioos:station:DISL:MHPA:1,2015-07-02T23:00:00Z,30.6671,-87.9365,29.62,1111122 
DISL,ioos:station:DISL:MHPA:1,2015-07-02T23:30:00Z,30.6671,-87.9365,29.45,1111122 
DISL,ioos:station:DISL:MHPA:1,2015-07-03T00:00:00Z,30.6671,-87.9365,29.42,1111122 
DISL,ioos:station:DISL:MHPA:1,2015-07-03T00:30:00Z,30.6671,-87.9365,28.99,1111122 
DISL,ioos:station:DISL:MHPA:1,2015-07-03T01:00:00Z,30.6671,-87.9365,28.9,1111122 
DISL,ioos:station:DISL:MHPA:1,2015-07-03T01:30:00Z,30.6671,-87.9365,28.63,1111122 
DISL,ioos:station:DISL:MHPA:1,2015-07-03T02:00:00Z,30.6671,-87.9365,28.53,1111122 
DISL,ioos:station:DISL:MHPA:1,2015-07-03T02:30:00Z,30.6671,-87.9365,28.6,1111122 
DISL,ioos:station:DISL:MHPA:1,2015-07-03T03:00:00Z,30.6671,-87.9365,28.43,1111122 
DISL,ioos:station:DISL:MHPA:1,2015-07-03T03:30:00Z,30.6671,-87.9365,28.43,1111122 
DISL,ioos:station:DISL:MHPA:1,2015-07-03T04:00:00Z,30.6671,-87.9365,28.5,1111122 
DISL,ioos:station:DISL:MHPA:1,2015-07-03T04:30:00Z,30.6671,-87.9365,28.2,1111122 
DISL,ioos:station:DISL:MHPA:1,2015-07-03T05:00:00Z,30.6671,-87.9365,28.06,1111122 
DISL,ioos:station:DISL:MHPA:1,2015-07-03T05:30:00Z,30.6671,-87.9365,28.0,1111122 
DISL,ioos:station:DISL:MHPA:1,2015-07-03T06:00:00Z,30.6671,-87.9365,27.83,1111122 
DISL,ioos:station:DISL:MHPA:1,2015-07-03T06:30:00Z,30.6671,-87.9365,27.7,1111122 
DISL,ioos:station:DISL:MHPA:1,2015-07-03T07:00:00Z,30.6671,-87.9365,27.6,1111122 
DISL,ioos:station:DISL:MHPA:1,2015-07-03T07:30:00Z,30.6671,-87.9365,27.63,1111122 
DISL,ioos:station:DISL:MHPA:1,2015-07-03T08:00:00Z,30.6671,-87.9365,27.7,1111122 
DISL,ioos:station:DISL:MHPA:1,2015-07-03T08:30:00Z,30.6671,-87.9365,27.7,1111122 
DISL,ioos:station:DISL:MHPA:1,2015-07-03T09:00:00Z,30.6671,-87.9365,27.67,1111122 
DISL,ioos:station:DISL:MHPA:1,2015-07-03T09:30:00Z,30.6671,-87.9365,27.67,1111122 
DISL,ioos:station:DISL:MHPA:1,2015-07-03T10:00:00Z,30.6671,-87.9365,27.63,1111122 
DISL,ioos:station:DISL:MHPA:1,2015-07-03T10:30:00Z,30.6671,-87.9365,27.53,1111122 
DISL,ioos:station:DISL:MHPA:1,2015-07-03T11:00:00Z,30.6671,-87.9365,27.43,1111122 
DISL,ioos:station:DISL:MHPA:1,2015-07-03T11:30:00Z,30.6671,-87.9365,27.23,1111122 
DISL,ioos:station:DISL:MHPA:1,2015-07-03T12:00:00Z,30.6671,-87.9365,27.26,1111122 
DISL,ioos:station:DISL:MHPA:1,2015-07-03T12:30:00Z,30.6671,-87.9365,27.36,1111122 
DISL,ioos:station:DISL:MHPA:1,2015-07-03T13:00:00Z,30.6671,-87.9365,27.39,1111122 
DISL,ioos:station:DISL:MHPA:1,2015-07-03T13:30:00Z,30.6671,-87.9365,27.49,1111122 
DISL,ioos:station:DISL:MHPA:1,2015-07-03T14:00:00Z,30.6671,-87.9365,27.89,1111122 
DISL,ioos:station:DISL:MHPA:1,2015-07-03T14:30:00Z,30.6671,-87.9365,28.11,1111122 
DISL,ioos:station:DISL:MHPA:1,2015-07-03T15:00:00Z,30.6671,-87.9365,28.24,1111122 
DISL,ioos:station:DISL:MHPA:1,2015-07-03T15:30:00Z,30.6671,-87.9365,28.61,1111122 
DISL,ioos:station:DISL:MHPA:1,2015-07-03T16:00:00Z,30.6671,-87.9365,28.91,1111122 
DISL,ioos:station:DISL:MHPA:1,2015-07-03T16:30:00Z,30.6671,-87.9365,29.45,1111122 
DISL,ioos:station:DISL:MHPA:1,2015-07-03T17:00:00Z,30.6671,-87.9365,29.61,1111122 
DISL,ioos:station:DISL:MHPA:1,2015-07-03T17:30:00Z,30.6671,-87.9365,29.9,1111122 
DISL,ioos:station:DISL:MHPA:1,2015-07-03T18:00:00Z,30.6671,-87.9365,29.24,1111122 
DISL,ioos:station:DISL:MHPA:1,2015-07-03T18:30:00Z,30.6671,-87.9365,29.39,1111122 
DISL,ioos:station:DISL:MHPA:1,2015-07-03T19:00:00Z,30.6671,-87.9365,29.45,1111122 
DISL,ioos:station:DISL:MHPA:1,2015-07-03T19:30:00Z,30.6671,-87.9365,29.49,1111122 
DISL,ioos:station:DISL:MHPA:1,2015-07-03T20:00:00Z,30.6671,-87.9365,29.55,1111122 
DISL,ioos:station:DISL:MHPA:1,2015-07-03T20:30:00Z,30.6671,-87.9365,29.52,1111122 
DISL,ioos:station:DISL:MHPA:1,2015-07-03T21:00:00Z,30.6671,-87.9365,29.49,1111122 
DISL,ioos:station:DISL:MHPA:1,2015-07-03T21:30:00Z,30.6671,-87.9365,29.52,1111122 
DISL,ioos:station:DISL:MHPA:1,2015-07-03T22:00:00Z,30.6671,-87.9365,29.66,1111122 
DISL,ioos:station:DISL:MHPA:1,2015-07-03T22:30:00Z,30.6671,-87.9365,29.59,1111122 
DISL,ioos:station:DISL:MHPA:1,2015-07-03T23:00:00Z,30.6671,-87.9365,29.72,1111122 
DISL,ioos:station:DISL:MHPA:1,2015-07-03T23:30:00Z,30.6671,-87.9365,29.49,1111122 
DISL,ioos:station:DISL:MHPA:1,2015-07-04T00:00:00Z,30.6671,-87.9365,29.45,1111122 
DISL,ioos:station:DISL:MHPA:1,2015-07-04T00:30:00Z,30.6671,-87.9365,29.32,1111122 
DISL,ioos:station:DISL:MHPA:1,2015-07-04T01:00:00Z,30.6671,-87.9365,29.22,1111122 
DISL,ioos:station:DISL:MHPA:1,2015-07-04T01:30:00Z,30.6671,-87.9365,29.21,1111122 
DISL,ioos:station:DISL:MHPA:1,2015-07-04T02:00:00Z,30.6671,-87.9365,29.11,1111122 
DISL,ioos:station:DISL:MHPA:1,2015-07-04T02:30:00Z,30.6671,-87.9365,29.07,1111122 
DISL,ioos:station:DISL:MHPA:1,2015-07-04T03:00:00Z,30.6671,-87.9365,29.21,1111122 
DISL,ioos:station:DISL:MHPA:1,2015-07-04T03:30:00Z,30.6671,-87.9365,29.24,1111122 
DISL,ioos:station:DISL:MHPA:1,2015-07-04T04:00:00Z,30.6671,-87.9365,29.14,1111122 
DISL,ioos:station:DISL:MHPA:1,2015-07-04T04:30:00Z,30.6671,-87.9365,29.07,1111122 
DISL,ioos:station:DISL:MHPA:1,2015-07-04T05:00:00Z,30.6671,-87.9365,29.01,1111122 
DISL,ioos:station:DISL:MHPA:1,2015-07-04T05:30:00Z,30.6671,-87.9365,28.97,1111122 
DISL,ioos:station:DISL:MHPA:1,2015-07-04T06:00:00Z,30.6671,-87.9365,28.94,1111122 
DISL,ioos:station:DISL:MHPA:1,2015-07-04T06:30:00Z,30.6671,-87.9365,28.67,1111122 
DISL,ioos:station:DISL:MHPA:1,2015-07-04T07:00:00Z,30.6671,-87.9365,28.5,1111122 
DISL,ioos:station:DISL:MHPA:1,2015-07-04T07:30:00Z,30.6671,-87.9365,28.43,1111122 
DISL,ioos:station:DISL:MHPA:1,2015-07-04T08:00:00Z,30.6671,-87.9365,28.26,1111122 
DISL,ioos:station:DISL:MHPA:1,2015-07-04T08:30:00Z,30.6671,-87.9365,28.06,1111122 
DISL,ioos:station:DISL:MHPA:1,2015-07-04T09:00:00Z,30.6671,-87.9365,27.93,1111122 
DISL,ioos:station:DISL:MHPA:1,2015-07-04T09:30:00Z,30.6671,-87.9365,28.03,1111122 
DISL,ioos:station:DISL:MHPA:1,2015-07-04T10:00:00Z,30.6671,-87.9365,28.07,1111122 
DISL,ioos:station:DISL:MHPA:1,2015-07-04T10:30:00Z,30.6671,-87.9365,27.97,1111122 
DISL,ioos:station:DISL:MHPA:1,2015-07-04T11:00:00Z,30.6671,-87.9365,28.03,1111122 
DISL,ioos:station:DISL:MHPA:1,2015-07-04T11:30:00Z,30.6671,-87.9365,27.8,1111122 
DISL,ioos:station:DISL:MHPA:1,2015-07-04T12:00:00Z,30.6671,-87.9365,27.73,1111122 
DISL,ioos:station:DISL:MHPA:1,2015-07-04T12:30:00Z,30.6671,-87.9365,27.69,1111122 
DISL,ioos:station:DISL:MHPA:1,2015-07-04T13:00:00Z,30.6671,-87.9365,27.93,1111122 
DISL,ioos:station:DISL:MHPA:1,2015-07-04T13:30:00Z,30.6671,-87.9365,28.23,1111122 
DISL,ioos:station:DISL:MHPA:1,2015-07-04T14:00:00Z,30.6671,-87.9365,28.25,1111122 
DISL,ioos:station:DISL:MHPA:1,2015-07-04T14:30:00Z,30.6671,-87.9365,28.44,1111122 
DISL,ioos:station:DISL:MHPA:1,2015-07-04T15:00:00Z,30.6671,-87.9365,29.22,1111122 
DISL,ioos:station:DISL:MHPA:1,2015-07-04T15:30:00Z,30.6671,-87.9365,29.59,1111122 
DISL,ioos:station:DISL:MHPA:1,2015-07-04T16:00:00Z,30.6671,-87.9365,29.52,1111122 
DISL,ioos:station:DISL:MHPA:1,2015-07-04T16:30:00Z,30.6671,-87.9365,29.72,1111122 
DISL,ioos:station:DISL:MHPA:1,2015-07-04T17:00:00Z,30.6671,-87.9365,29.86,1111122 
DISL,ioos:station:DISL:MHPA:1,2015-07-04T17:30:00Z,30.6671,-87.9365,29.82,1111122 
DISL,ioos:station:DISL:MHPA:1,2015-07-04T18:00:00Z,30.6671,-87.9365,29.79,1111122 
DISL,ioos:station:DISL:MHPA:1,2015-07-04T18:30:00Z,30.6671,-87.9365,29.52,1111122 
DISL,ioos:station:DISL:MHPA:1,2015-07-04T19:00:00Z,30.6671,-87.9365,29.32,1111122 
DISL,ioos:station:DISL:MHPA:1,2015-07-04T19:30:00Z,30.6671,-87.9365,29.35,1111122 
DISL,ioos:station:DISL:MHPA:1,2015-07-04T20:00:00Z,30.6671,-87.9365,29.49,1111122 
DISL,ioos:station:DISL:MHPA:1,2015-07-04T20:30:00Z,30.6671,-87.9365,29.59,1111122 
DISL,ioos:station:DISL:MHPA:1,2015-07-04T21:00:00Z,30.6671,-87.9365,29.59,1111122 
DISL,ioos:station:DISL:MHPA:1,2015-07-04T21:30:00Z,30.6671,-87.9365,29.66,1111122 
DISL,ioos:station:DISL:MHPA:1,2015-07-04T22:00:00Z,30.6671,-87.9365,30.36,1111122 
DISL,ioos:station:DISL:MHPA:1,2015-07-04T22:30:00Z,30.6671,-87.9365,30.5,1111122 
DISL,ioos:station:DISL:MHPA:1,2015-07-04T23:00:00Z,30.6671,-87.9365,22.85,1111122 
DISL,ioos:station:DISL:MHPA:1,2015-07-04T23:30:00Z,30.6671,-87.9365,23.25,1111122 
DISL,ioos:station:DISL:MHPA:1,2015-07-05T00:00:00Z,30.6671,-87.9365,23.26,1111122 
DISL,ioos:station:DISL:MHPA:1,2015-07-05T00:30:00Z,30.6671,-87.9365,24.48,1111122 
DISL,ioos:station:DISL:MHPA:1,2015-07-05T01:00:00Z,30.6671,-87.9365,24.29,1111122 
DISL,ioos:station:DISL:MHPA:1,2015-07-05T01:30:00Z,30.6671,-87.9365,25.14,1111122 
DISL,ioos:station:DISL:MHPA:1,2015-07-05T02:00:00Z,30.6671,-87.9365,24.6,1111122 
DISL,ioos:station:DISL:MHPA:1,2015-07-05T02:30:00Z,30.6671,-87.9365,23.85,1111122 
DISL,ioos:station:DISL:MHPA:1,2015-07-05T03:00:00Z,30.6671,-87.9365,23.75,1111122 
DISL,ioos:station:DISL:MHPA:1,2015-07-05T03:30:00Z,30.6671,-87.9365,24.02,1111122 
DISL,ioos:station:DISL:MHPA:1,2015-07-05T04:00:00Z,30.6671,-87.9365,24.19,1111122 
DISL,ioos:station:DISL:MHPA:1,2015-07-05T04:30:00Z,30.6671,-87.9365,24.15,1111122 
DISL,ioos:station:DISL:MHPA:1,2015-07-05T05:00:00Z,30.6671,-87.9365,23.78,1111122 
DISL,ioos:station:DISL:MHPA:1,2015-07-05T05:30:00Z,30.6671,-87.9365,23.85,1111122 
DISL,ioos:station:DISL:MHPA:1,2015-07-05T06:00:00Z,30.6671,-87.9365,24.19,1111122 
DISL,ioos:station:DISL:MHPA:1,2015-07-05T06:30:00Z,30.6671,-87.9365,24.02,1111122 
DISL,ioos:station:DISL:MHPA:1,2015-07-05T07:00:00Z,30.6671,-87.9365,23.98,1111122 
DISL,ioos:station:DISL:MHPA:1,2015-07-05T07:30:00Z,30.6671,-87.9365,24.28,1111122 
DISL,ioos:station:DISL:MHPA:1,2015-07-05T08:00:00Z,30.6671,-87.9365,24.31,1111122 
DISL,ioos:station:DISL:MHPA:1,2015-07-05T08:30:00Z,30.6671,-87.9365,24.31,1111122 
DISL,ioos:station:DISL:MHPA:1,2015-07-05T09:00:00Z,30.6671,-87.9365,24.21,1111122 
DISL,ioos:station:DISL:MHPA:1,2015-07-05T09:30:00Z,30.6671,-87.9365,24.37,1111122 
DISL,ioos:station:DISL:MHPA:1,2015-07-05T10:00:00Z,30.6671,-87.9365,24.54,1111122 
DISL,ioos:station:DISL:MHPA:1,2015-07-05T10:30:00Z,30.6671,-87.9365,24.51,1111122 
DISL,ioos:station:DISL:MHPA:1,2015-07-05T11:00:00Z,30.6671,-87.9365,24.81,1111122 
DISL,ioos:station:DISL:MHPA:1,2015-07-05T11:30:00Z,30.6671,-87.9365,24.44,1111122 
DISL,ioos:station:DISL:MHPA:1,2015-07-05T12:00:00Z,30.6671,-87.9365,24.95,1111122 
DISL,ioos:station:DISL:MHPA:1,2015-07-05T12:30:00Z,30.6671,-87.9365,24.29,1111122 
DISL,ioos:station:DISL:MHPA:1,2015-07-05T13:00:00Z,30.6671,-87.9365,26.32,1111122 
DISL,ioos:station:DISL:MHPA:1,2015-07-05T13:30:00Z,30.6671,-87.9365,25.15,1111122 
DISL,ioos:station:DISL:MHPA:1,2015-07-05T14:00:00Z,30.6671,-87.9365,25.38,1111122 
DISL,ioos:station:DISL:MHPA:1,2015-07-05T14:30:00Z,30.6671,-87.9365,25.92,1111122 
DISL,ioos:station:DISL:MHPA:1,2015-07-05T15:00:00Z,30.6671,-87.9365,25.11,1111122 
DISL,ioos:station:DISL:MHPA:1,2015-07-05T15:30:00Z,30.6671,-87.9365,24.47,1111122 
DISL,ioos:station:DISL:MHPA:1,2015-07-05T16:00:00Z,30.6671,-87.9365,24.68,1111122 
DISL,ioos:station:DISL:MHPA:1,2015-07-05T16:30:00Z,30.6671,-87.9365,25.01,1111122 
DISL,ioos:station:DISL:MHPA:1,2015-07-05T17:00:00Z,30.6671,-87.9365,25.18,1111122 
DISL,ioos:station:DISL:MHPA:1,2015-07-05T17:30:00Z,30.6671,-87.9365,25.65,1111122 
DISL,ioos:station:DISL:MHPA:1,2015-07-05T18:00:00Z,30.6671,-87.9365,24.98,1111122 
DISL,ioos:station:DISL:MHPA:1,2015-07-05T18:30:00Z,30.6671,-87.9365,25.05,1111122 
DISL,ioos:station:DISL:MHPA:1,2015-07-05T19:00:00Z,30.6671,-87.9365,24.37,1111122 
DISL,ioos:station:DISL:MHPA:1,2015-07-05T19:30:00Z,30.6671,-87.9365,24.34,1111122 
DISL,ioos:station:DISL:MHPA:1,2015-07-05T20:00:00Z,30.6671,-87.9365,24.54,1111122 
DISL,ioos:station:DISL:MHPA:1,2015-07-05T20:30:00Z,30.6671,-87.9365,22.96,1111122 
DISL,ioos:station:DISL:MHPA:1,2015-07-05T21:00:00Z,30.6671,-87.9365,22.54,1111122 
DISL,ioos:station:DISL:MHPA:1,2015-07-05T21:30:00Z,30.6671,-87.9365,22.23,1111122 
DISL,ioos:station:DISL:MHPA:1,2015-07-05T22:00:00Z,30.6671,-87.9365,22.44,1111122 
DISL,ioos:station:DISL:MHPA:1,2015-07-05T22:30:00Z,30.6671,-87.9365,22.54,1111122 
DISL,ioos:station:DISL:MHPA:1,2015-07-05T23:00:00Z,30.6671,-87.9365,22.37,1111122 
DISL,ioos:station:DISL:MHPA:1,2015-07-05T23:30:00Z,30.6671,-87.9365,23.42,1111122 
DISL,ioos:station:DISL:MHPA:1,2015-07-06T00:00:00Z,30.6671,-87.9365,23.49,1111122 
DISL,ioos:station:DISL:MHPA:1,2015-07-06T00:30:00Z,30.6671,-87.9365,24.02,1111122 
DISL,ioos:station:DISL:MHPA:1,2015-07-06T01:00:00Z,30.6671,-87.9365,24.06,1111122 
DISL,ioos:station:DISL:MHPA:1,2015-07-06T01:30:00Z,30.6671,-87.9365,23.75,1111122 
DISL,ioos:station:DISL:MHPA:1,2015-07-06T02:00:00Z,30.6671,-87.9365,22.88,1111122 
DISL,ioos:station:DISL:MHPA:1,2015-07-06T02:30:00Z,30.6671,-87.9365,22.37,1111122 
DISL,ioos:station:DISL:MHPA:1,2015-07-06T03:00:00Z,30.6671,-87.9365,22.67,1111122 
DISL,ioos:station:DISL:MHPA:1,2015-07-06T03:30:00Z,30.6671,-87.9365,23.72,1111122 
DISL,ioos:station:DISL:MHPA:1,2015-07-06T04:00:00Z,30.6671,-87.9365,23.25,1111122 
DISL,ioos:station:DISL:MHPA:1,2015-07-06T04:30:00Z,30.6671,-87.9365,22.13,1111122 
DISL,ioos:station:DISL:MHPA:1,2015-07-06T05:00:00Z,30.6671,-87.9365,21.66,1111122 
DISL,ioos:station:DISL:MHPA:1,2015-07-06T05:30:00Z,30.6671,-87.9365,21.73,1111122 
DISL,ioos:station:DISL:MHPA:1,2015-07-06T06:00:00Z,30.6671,-87.9365,21.36,1111122 
DISL,ioos:station:DISL:MHPA:1,2015-07-06T06:30:00Z,30.6671,-87.9365,21.63,1111122 
DISL,ioos:station:DISL:MHPA:1,2015-07-06T07:00:00Z,30.6671,-87.9365,21.87,1111122 
DISL,ioos:station:DISL:MHPA:1,2015-07-06T07:30:00Z,30.6671,-87.9365,21.83,1111122 
DISL,ioos:station:DISL:MHPA:1,2015-07-06T08:00:00Z,30.6671,-87.9365,22.07,1111122 
DISL,ioos:station:DISL:MHPA:1,2015-07-06T08:30:00Z,30.6671,-87.9365,22.27,1111122 
DISL,ioos:station:DISL:MHPA:1,2015-07-06T09:00:00Z,30.6671,-87.9365,22.34,1111122 
DISL,ioos:station:DISL:MHPA:1,2015-07-06T09:30:00Z,30.6671,-87.9365,22.14,1111122 
DISL,ioos:station:DISL:MHPA:1,2015-07-06T10:00:00Z,30.6671,-87.9365,22.21,1111122 
DISL,ioos:station:DISL:MHPA:1,2015-07-06T10:30:00Z,30.6671,-87.9365,22.41,1111122 
DISL,ioos:station:DISL:MHPA:1,2015-07-06T11:00:00Z,30.6671,-87.9365,22.51,1111122 
DISL,ioos:station:DISL:MHPA:1,2015-07-06T11:30:00Z,30.6671,-87.9365,22.48,1111122 
DISL,ioos:station:DISL:MHPA:1,2015-07-06T12:00:00Z,30.6671,-87.9365,22.34,1111122 
DISL,ioos:station:DISL:MHPA:1,2015-07-06T12:30:00Z,30.6671,-87.9365,22.47,1111122 
DISL,ioos:station:DISL:MHPA:1,2015-07-06T13:00:00Z,30.6671,-87.9365,23.18,1111122 
DISL,ioos:station:DISL:MHPA:1,2015-07-06T13:30:00Z,30.6671,-87.9365,23.67,1111122 
DISL,ioos:station:DISL:MHPA:1,2015-07-06T14:00:00Z,30.6671,-87.9365,24.31,1111122 
DISL,ioos:station:DISL:MHPA:1,2015-07-06T14:30:00Z,30.6671,-87.9365,24.84,1111122 
DISL,ioos:station:DISL:MHPA:1,2015-07-06T15:00:00Z,30.6671,-87.9365,25.22,1111122 
DISL,ioos:station:DISL:MHPA:1,2015-07-06T15:30:00Z,30.6671,-87.9365,25.91,1111122 
DISL,ioos:station:DISL:MHPA:1,2015-07-06T16:00:00Z,30.6671,-87.9365,26.71,1111122 
DISL,ioos:station:DISL:MHPA:1,2015-07-06T16:30:00Z,30.6671,-87.9365,26.64,1111122 
DISL,ioos:station:DISL:MHPA:1,2015-07-06T17:00:00Z,30.6671,-87.9365,28.01,1111122 
DISL,ioos:station:DISL:MHPA:1,2015-07-06T17:30:00Z,30.6671,-87.9365,29.25,1111122 
DISL,ioos:station:DISL:MHPA:1,2015-07-06T18:00:00Z,30.6671,-87.9365,29.71,1111122 
DISL,ioos:station:DISL:MHPA:1,2015-07-06T18:30:00Z,30.6671,-87.9365,29.5,1111122 
DISL,ioos:station:DISL:MHPA:1,2015-07-06T19:00:00Z,30.6671,-87.9365,29.67,1111122 
DISL,ioos:station:DISL:MHPA:1,2015-07-06T19:30:00Z,30.6671,-87.9365,29.87,1111122 
DISL,ioos:station:DISL:MHPA:1,2015-07-06T20:00:00Z,30.6671,-87.9365,29.97,1111122 
DISL,ioos:station:DISL:MHPA:1,2015-07-06T20:30:00Z,30.6671,-87.9365,30.07,1111122 
DISL,ioos:station:DISL:MHPA:1,2015-07-06T21:00:00Z,30.6671,-87.9365,29.9,1111122 
DISL,ioos:station:DISL:MHPA:1,2015-07-06T21:30:00Z,30.6671,-87.9365,30.07,1111122 
DISL,ioos:station:DISL:MHPA:1,2015-07-06T22:00:00Z,30.6671,-87.9365,29.94,1111122 
DISL,ioos:station:DISL:MHPA:1,2015-07-06T22:30:00Z,30.6671,-87.9365,29.92,1111122 
DISL,ioos:station:DISL:MHPA:1,2015-07-06T23:00:00Z,30.6671,-87.9365,29.86,1111122 
DISL,ioos:station:DISL:MHPA:1,2015-07-06T23:30:00Z,30.6671,-87.9365,29.52,1111122 